[[{"header":{"parameterUnit":"m.s-1","parameterCategory":1,"la1":30.2991,"la2":30.254,"lo1":-89.0895,"lo2":-89.0444,"dy":0.0017,"dx":0.0017,"nx":28,"ny":28,"refTime":"2025-03-30T03:00:00:Z","depth":0,"parameterNumber":2,"parameterNumberName":"U-component_of_WINDS"},"data":[0,0,0,0,0,0,0,0,0,0,0,0,0,0,0,0,0,0,0,0,0,0,0,0,0,0,0,0,0,0,0,0,0,0,0,0,0,0,0,0,0,0,0,0,0,0,0,0,0,0,0,0,0,0,0,0,0,0,-2.8019,-2.8021,0,-2.8133,-2.8135,-2.8136,-2.8186,-2.8185,-2.8185,-2.8185,-2.8302,-2.8305,-2.8308,0,0,0,0,0,0,0,0,0,0,0,0,0,-2.7846,-2.7849,-2.8019,-2.8021,-2.8022,-2.8133,-2.8135,-2.8136,-2.8186,-2.8185,-2.8185,-2.8185,-2.8301,-2.8305,-2.8309,0,0,0,0,0,0,0,0,0,0,0,0,0,-2.7936,-2.785,-2.8019,-2.806,-2.8065,-2.8133,-2.8135,-2.8137,-2.8186,-2.8185,-2.8185,-2.8185,-2.83,-2.8304,-2.8309,-2.8344,0,0,-2.8324,-2.8326,0,0,0,0,0,0,0,0,-2.7931,-2.7943,-2.8053,-2.8057,-2.8063,-2.8145,-2.8116,-2.8206,-2.8186,-2.814,-2.8185,-2.8185,-2.825,-2.8259,-2.8281,-2.835,-2.8355,-2.8325,-2.8327,-2.833,-2.8331,0,0,0,0,0,0,0,-2.7925,-2.7938,-2.8064,-2.8054,-2.8061,-2.8073,-2.8086,-2.8134,-2.8195,-2.8144,-2.8148,-2.816,-2.8253,-2.8276,-2.8284,-2.8357,-2.8324,-2.8329,-2.8332,-2.8334,-2.8462,-2.8462,0,0,0,0,0,0,-2.7912,-2.7933,-2.8061,-2.8068,-2.7995,-2.8077,-2.8091,-2.8119,-2.8195,-2.8206,-2.8161,-2.8162,-2.8268,-2.8278,-2.8288,-2.8335,-2.833,-2.8334,-2.8337,-2.8461,-2.8462,-2.8462,0,0,0,0,0,0,-2.7908,-2.7923,-2.8056,-2.8001,-2.8019,-2.808,-2.8111,-2.8121,-2.8145,-2.8207,-2.8218,-2.8173,-2.8268,-2.8281,-2.833,-2.834,-2.8336,-2.8341,-2.8461,-2.8461,-2.8462,-2.8429,0,0,0,0,0,0,-2.7903,-2.7921,-2.7935,-2.8001,-2.8022,-2.8096,-2.8112,-2.8124,-2.8153,-2.8156,-2.8222,-2.8232,-2.8269,-2.8323,-2.8335,-2.8346,-2.8345,-2.846,-2.8461,-2.8462,-2.8429,-2.8428,-2.8427,0,0,0,0,0,-2.7896,-2.7921,-2.7935,-2.795,-2.804,-2.8096,-2.8108,-2.8149,-2.8153,-2.8168,-2.8208,-2.823,-2.8337,-2.8327,-2.8342,-2.8355,-2.846,-2.8461,-2.8462,-2.843,-2.8428,-2.8427,0,0,0,0,0,0,-2.7854,-2.793,-2.7947,-2.7994,-2.8038,-2.8105,-2.8124,-2.8147,-2.8191,-2.8192,-2.8242,-2.8256,-2.8301,-2.8333,-2.8321,-2.8393,-2.84,-2.8404,-2.8371,-2.837,-2.8369,-2.836,-2.8349,0,0,0,0,0,-2.785,-2.7889,-2.7953,-2.7988,-2.801,-2.8063,-2.8089,-2.8117,-2.8165,-2.8184,-2.8228,-2.8274,-2.8318,-2.8346,-2.839,-2.8434,-2.8449,-2.845,-2.8449,-2.8448,-2.8451,-2.8478,-2.8479,-2.8466,-2.8466,-2.8466,0,0,-2.7842,-2.7889,-2.791,-2.7981,-2.8019,-2.8058,-2.8079,-2.8119,-2.8149,-2.819,-2.8239,-2.8273,-2.8328,-2.8375,-2.8398,-2.8403,-2.8458,-2.8449,-2.8448,-2.8452,-2.8479,-2.848,-2.8481,-2.8466,-2.8466,-2.8466,0,0,-2.7848,-2.7887,-2.7921,-2.7958,-2.8015,-2.805,-2.8058,-2.8122,-2.8146,-2.8196,-2.8228,-2.8265,-2.8339,-2.8377,-2.8406,-2.8427,-2.8449,-2.844,-2.8435,-2.846,-2.8461,-2.8462,-2.847,-2.8472,-2.8443,-2.8443,-2.8442,0,-2.7831,-2.7891,-2.7935,-2.7974,-2.8005,-2.8044,-2.8079,-2.8113,-2.8181,-2.8202,-2.8206,-2.8301,-2.8341,-2.8398,-2.8403,-2.8425,-2.8436,-2.8432,-2.8457,-2.8459,-2.8461,-2.8469,-2.8472,-2.8441,-2.8441,-2.8441,-2.8441,0,-2.7868,-2.791,-2.793,-2.7995,-2.8028,-2.8065,-2.8114,-2.8142,-2.8167,-2.8202,-2.8253,-2.8302,-2.8357,-2.8373,-2.8398,-2.8433,-2.8435,-2.8448,-2.8456,-2.846,-2.8468,-2.8472,-2.8439,-2.8439,-2.844,-2.844,0,0,-2.785,-2.7939,-2.7946,-2.7976,-2.8042,-2.8075,-2.8114,-2.8168,-2.8191,-2.8237,-2.8271,-2.8334,-2.8346,-2.8379,-2.8409,-2.8431,-2.8446,-2.8442,-2.8444,-2.8441,-2.8489,-2.8478,-2.8481,-2.8461,-2.8462,-2.8462,-2.8484,0,-2.7865,-2.7936,-2.7977,-2.8031,-2.807,-2.8108,-2.8142,-2.8187,-2.8221,-2.8259,-2.8297,-2.8341,-2.8354,-2.8374,-2.8398,-2.8439,-2.8456,-2.8438,-2.8493,-2.8495,-2.8478,-2.8485,-2.8475,-2.8493,-2.8488,-2.8488,-2.8489,0,-2.7892,-2.7937,-2.7995,-2.8058,-2.8076,-2.8105,-2.8158,-2.8194,-2.8246,-2.8269,-2.8306,-2.8336,-2.8379,-2.8383,-2.8444,-2.8431,-2.8456,-2.848,-2.8481,-2.8488,-2.8492,-2.8492,-2.85,-2.8502,-2.8494,-2.8494,-2.8493,0,-2.7873,-2.7949,-2.7994,-2.8018,-2.8092,-2.8112,-2.8144,-2.8195,-2.8225,-2.8271,-2.8291,-2.8342,-2.8369,-2.8408,-2.8451,-2.845,-2.8507,-2.8515,-2.8528,-2.8527,-2.8538,-2.8537,-2.8549,-2.8554,-2.8554,-2.8554,-2.8554,0,-2.7886,-2.792,-2.7986,-2.8014,-2.8053,-2.81,-2.8138,-2.8173,-2.8218,-2.8253,-2.829,-2.8322,-2.8377,-2.8416,-2.845,-2.8496,-2.8508,-2.8528,-2.8537,-2.8525,-2.8522,-2.8542,-2.8542,-2.8555,-2.8555,-2.8555,-2.8555,0,-2.7872,-2.7917,-2.7969,-2.8034,-2.8051,-2.8078,-2.8134,-2.8163,-2.8199,-2.8243,-2.8256,-2.8313,-2.8361,-2.8408,-2.8473,-2.8496,-2.8541,-2.8552,-2.8523,-2.8528,-2.8538,-2.8536,-2.8564,-2.857,-2.857,-2.857,-2.857,0,-2.7877,-2.7904,-2.7972,-2.7998,-2.8029,-2.8071,-2.8102,-2.8149,-2.8179,-2.824,-2.8262,-2.8313,-2.8356,-2.8432,-2.8479,-2.8529,-2.8542,-2.8548,-2.855,-2.8537,-2.8542,-2.854,-2.8543,-2.8547,-2.8546,-2.8546,-2.8546,0,-2.7881,-2.7902,-2.7945,-2.7996,-2.8031,-2.8073,-2.8117,-2.8136,-2.8192,-2.8225,-2.8274,-2.8308,-2.8374,-2.8425,-2.8481,-2.8514,-2.8539,-2.8545,-2.8551,-2.8539,-2.8521,-2.8531,-2.852,-2.8544,-2.8545,-2.8545,-2.8545,-2.8545,-2.7877,-2.7903,-2.7955,-2.8002,-2.8039,-2.8079,-2.8109,-2.8149,-2.8191,-2.8249,-2.8274,-2.8325,-2.8377,-2.8454,-2.8487,-2.8527,-2.8534,-2.8542,-2.8544,-2.8545,-2.8543,-2.8515,-2.8538,-2.8538,-2.8538,-2.8538,-2.8538,0,-2.7883,-2.7919,-2.7961,-2.8021,-2.8057,-2.8078,-2.8128,-2.8157,-2.8201,-2.8247,-2.8288,-2.8346,-2.8395,-2.8447,-2.8499,-2.8522,-2.8535,-2.8534,-2.8533,-2.854,-2.8534,-2.8524,-2.8522,-2.8522,-2.8522,-2.8522,-2.8522,-2.8522,-2.7891,-2.7936,-2.7964,-2.8028,-2.8064,-2.8113,-2.814,-2.8177,-2.8214,-2.8276,-2.8317,-2.835,-2.8399,-2.8455,-2.8502,-2.8516,-2.8533,-2.8529,-2.8546,-2.8539,-2.854,-2.8541,-2.8532,-2.8532,-2.8532,-2.8549,-2.8549,-2.8549]},{"header":{"parameterUnit":"m.s-1","parameterCategory":1,"la1":30.2991,"la2":30.254,"lo1":-89.0895,"lo2":-89.0444,"dy":0.0017,"dx":0.0017,"nx":28,"ny":28,"refTime":"2025-03-30T03:00:00:Z","depth":0,"parameterNumber":3,"parameterNumberName":"V-component_of_WINDS"},"data":[0,0,0,0,0,0,0,0,0,0,0,0,0,0,0,0,0,0,0,0,0,0,0,0,0,0,0,0,0,0,0,0,0,0,0,0,0,0,0,0,0,0,0,0,0,0,0,0,0,0,0,0,0,0,0,0,0,0,3.8156,3.8156,0,3.8195,3.8196,3.8196,3.8151,3.8149,3.8148,3.8146,3.8189,3.8191,3.8194,0,0,0,0,0,0,0,0,0,0,0,0,0,3.8045,3.8047,3.8156,3.8156,3.8157,3.8195,3.8196,3.8196,3.8151,3.8149,3.8147,3.8145,3.8188,3.8191,3.8194,0,0,0,0,0,0,0,0,0,0,0,0,0,3.809,3.8048,3.8155,3.8139,3.8138,3.8195,3.8196,3.8196,3.8152,3.8149,3.8147,3.8144,3.8187,3.8191,3.8195,3.8271,0,0,3.8207,3.8209,0,0,0,0,0,0,0,0,3.8087,3.8094,3.8141,3.814,3.8139,3.8165,3.8172,3.8222,3.8152,3.8146,3.8146,3.8143,3.8183,3.8187,3.8201,3.8273,3.8275,3.8208,3.821,3.8212,3.8213,0,0,0,0,0,0,0,3.8084,3.8092,3.8171,3.8141,3.814,3.813,3.8134,3.8181,3.8179,3.8147,3.8144,3.8149,3.8182,3.8197,3.8201,3.8276,3.8208,3.8211,3.8214,3.8215,3.8416,3.8419,0,0,0,0,0,0,3.8082,3.8089,3.817,3.8172,3.8106,3.8135,3.8138,3.816,3.8178,3.8178,3.8151,3.8146,3.8191,3.8196,3.8203,3.8296,3.8212,3.8216,3.8218,3.8413,3.8417,3.842,0,0,0,0,0,0,3.808,3.809,3.8168,3.813,3.8139,3.8139,3.8163,3.8162,3.8176,3.8181,3.8181,3.8166,3.8189,3.8197,3.8255,3.8296,3.8218,3.8221,3.841,3.8414,3.8418,3.8481,0,0,0,0,0,0,3.8077,3.8089,3.8118,3.8131,3.8141,3.8219,3.8166,3.8164,3.8183,3.8178,3.8195,3.8196,3.8188,3.8249,3.8259,3.8301,3.8224,3.8406,3.8412,3.8417,3.8475,3.8487,3.8497,0,0,0,0,0,3.8073,3.8134,3.8119,3.8129,3.8177,3.8222,3.8228,3.8217,3.8186,3.8216,3.8219,3.8195,3.829,3.8256,3.8266,3.831,3.8404,3.841,3.8417,3.8471,3.8485,3.8497,0,0,0,0,0,0,3.8125,3.8135,3.8119,3.8185,3.8203,3.8214,3.825,3.8232,3.8259,3.8253,3.8239,3.8243,3.8306,3.8313,3.8275,3.8386,3.8342,3.8351,3.8379,3.8393,3.8403,3.8401,3.8228,0,0,0,0,0,3.8144,3.8179,3.8186,3.8244,3.8254,3.8251,3.827,3.826,3.8278,3.8286,3.8293,3.8313,3.8347,3.837,3.8401,3.8476,3.848,3.8511,3.8522,3.8531,3.8539,3.8582,3.8597,3.8441,3.8441,3.8441,0,0,3.8185,3.8194,3.8217,3.8255,3.8267,3.8306,3.8257,3.8299,3.8328,3.8292,3.8348,3.8355,3.8375,3.8443,3.8473,3.8451,3.8583,3.8539,3.8546,3.855,3.859,3.8605,3.8618,3.8446,3.8445,3.8444,0,0,3.8278,3.8287,3.8338,3.8351,3.8371,3.8369,3.8381,3.8395,3.8398,3.8454,3.8429,3.8463,3.8522,3.8538,3.8555,3.8656,3.8636,3.8666,3.8724,3.8765,3.8778,3.8788,3.8827,3.8841,3.8674,3.8674,3.8674,0,3.8325,3.8381,3.8366,3.841,3.8429,3.8398,3.845,3.8464,3.8494,3.8508,3.8482,3.8557,3.8568,3.8641,3.8666,3.8679,3.8694,3.8665,3.8777,3.8787,3.8797,3.8834,3.8849,3.8678,3.8678,3.8677,3.8677,0,3.844,3.8479,3.8517,3.8547,3.8569,3.8617,3.8611,3.8636,3.8624,3.8625,3.8684,3.8697,3.8732,3.8748,3.8736,3.8819,3.8805,3.8779,3.8734,3.8816,3.8851,3.8865,3.8684,3.8682,3.8681,3.868,0,0,3.8568,3.8588,3.8603,3.8617,3.8637,3.8668,3.8715,3.8749,3.8772,3.8793,3.8834,3.8885,3.8861,3.888,3.887,3.8906,3.8989,3.8875,3.8876,3.8898,3.9084,3.9107,3.9123,3.8975,3.8978,3.898,3.9084,0,3.8663,3.8745,3.8734,3.8813,3.885,3.8822,3.8863,3.8881,3.8883,3.8916,3.8919,3.8957,3.8921,3.8932,3.8966,3.8972,3.9027,3.8964,3.9016,3.9018,3.9014,3.914,3.9163,3.9261,3.9097,3.9099,3.9101,0,3.8786,3.8812,3.8895,3.8911,3.8926,3.8964,3.8995,3.9026,3.9046,3.9045,3.9067,3.9051,3.9101,3.9054,3.9124,3.9081,3.9102,3.9107,3.9111,3.9118,3.9066,3.9153,3.9292,3.9308,3.9121,3.912,3.9118,0,3.8875,3.893,3.8987,3.9,3.9019,3.9047,3.9056,3.9074,3.9095,3.9123,3.9137,3.917,3.9189,3.9216,3.921,3.9176,3.9282,3.9234,3.9285,3.9286,3.9311,3.931,3.9458,3.932,3.9319,3.9319,3.9319,0,3.8984,3.9037,3.9028,3.9064,3.9122,3.9109,3.9168,3.9174,3.919,3.9228,3.9205,3.9241,3.923,3.9266,3.9262,3.9322,3.933,3.9333,3.9331,3.9336,3.9337,3.9351,3.9346,3.9323,3.9322,3.9321,3.9321,0,3.9094,3.909,3.9151,3.9164,3.9169,3.9212,3.9224,3.9259,3.9259,3.9307,3.9318,3.9319,3.9361,3.9357,3.9404,3.9401,3.9476,3.9466,3.947,3.9469,3.9521,3.9517,3.9686,3.9708,3.9553,3.9554,3.9556,0,3.9166,3.9206,3.9223,3.9246,3.9258,3.9295,3.9318,3.9306,3.9331,3.9358,3.939,3.9429,3.946,3.9528,3.9534,3.957,3.9562,3.9619,3.9568,3.9572,3.9567,3.9566,3.9571,3.963,3.9631,3.9633,3.9634,0,3.9294,3.9291,3.9323,3.9355,3.9382,3.9407,3.943,3.9451,3.9442,3.9471,3.9513,3.9537,3.9585,3.9626,3.966,3.9671,3.9653,3.965,3.9664,3.9671,3.9673,3.9676,3.95,3.9646,3.9645,3.9644,3.9644,3.9643,3.9389,3.9425,3.9443,3.9481,3.9496,3.9518,3.9552,3.9557,3.9591,3.9629,3.9621,3.9669,3.969,3.9734,3.9749,3.9788,3.9768,3.9787,3.9793,3.9799,3.9807,3.9664,3.9793,3.9793,3.9793,3.9792,3.9792,0,3.952,3.953,3.9564,3.9597,3.9627,3.9605,3.9629,3.9657,3.9699,3.972,3.9751,3.98,3.984,3.9849,3.9887,3.9916,3.9909,3.9927,3.9926,3.993,3.9821,3.9806,3.9933,3.9933,3.9933,3.9933,3.9933,3.9933,3.9591,3.9651,3.9649,3.9717,3.9727,3.9773,3.979,3.9811,3.9827,3.9884,3.9916,3.9921,3.9938,3.9977,4.0013,4.0015,4.0032,4.0054,4.0053,3.9951,3.9937,3.9924,3.991,4.0057,4.0057,4.0159,4.016,4.0161]}]]